Погода в Беляницах

Россия / Ивановская область     57°01′25″N   40°53′36″E
темп.,
°C
ветер,
м/с
пор.,
м/с
влажн.,
%
обл.,
%
осадки,
мм/ч
давл.,
гПа
погр.,
м
22 апреля, чт
чт2200:00+3ююз3894100 0.0 1012385
03:00+3ююз4995100 0.0 1013402
06:00+3ю4994100 0.0 1014520
09:00+4ю5894100 0.3 1015627
12:00+8ююз6973100 0.1 10151138
15:00+11ююз596647 0.2 10151340
18:00+11ююз496946 0.1 1016648
21:00+7ю311905 0.1 1017226
23 апреля, пт
пт2300:00+6ю3119252 0.0 1017258
03:00+5ююв3109419 0.0 1017230
06:00+5ююв412935 0.0 1017275
09:00+11ю5107040 0.0 1017555
12:00+16ю6104831 0.0 10162011
15:00+14ю61054100 0.1 10161146
18:00+14ююв5105268 0.0 1015842
21:00+10юв513715 0.1 1015404
24 апреля, сб
сб2400:00+8юв413815 0.0 1013349
03:00+7юв513845 0.1 1011350
06:00+7юв51482100 0.1 1010447
09:00+11юв7136886 0.1 10071329
12:00+13ююв81267100 1.2 10051688
15:00+4з5992100 2.5 1007521
18:00+3зсз41096100 4.6 1007532
21:00+4з2691100 5.5 1008441
25 апреля, вс
вс2500:00+2зюз24969 0.0 1007100
03:00+1зюз25955 0.0 1007102
06:00+1з410865 0.0 1008321
09:00+5з57665 0.0 1008899
12:00+8зюз5749100 0.1 10092107
15:00+9зюз5746100 0.1 10091957
18:00+7зюз465796 0.3 10101187
21:00+3юз367926 0.4 1011134
26 апреля, пн
пн2600:00+1зюз310855 0.0 1012287
03:000юз39915 0.0 1012237
06:000юз310835 0.0 1013372
09:00+5юз57606 0.0 10121151
12:00+8юз4642100 0.2 10122283
15:00+9юз563996 0.3 10112175
18:00+8зюз25485 0.1 10111285
21:00+4зюз226569 0.1 101132